OTP-2

Last updated on Sun Aug 09 2026 00:03:16 GMT+0000 (Coordinated Universal Time)

1 63235U 25052AB 26220.41502689 .00003067 00000+0 12708-3 0 9996 2 63235 97.3797 112.0706 0005842 357.9463 2.1750 15.24641111 77821
UTC large
Height (km)
Speed (km/s)
/
Latitude / Longitude
Inclination (degrees)
Orbital Period (minutes)
Azimuth
Elevation
Range (km)
Doppler Factor

Next 0 passes for location: London (51.5072 / 0.1276)

No passes found over London.
OTP-2